Location: Callanans Corners
(42.5326°N, 73.8846°W)
Time: 17:27:14
(UTC+00:00)

Cosmos 2195 Rocket - Pass Details

Date: 06 October 2022
Orbit: 948 x 994 km, 82.9° (Epoch: 05 December)

Event Time Altitude Azimuth Distance (km) Brightness Sun altitude
Rises 23:42:30 0° 179° (S) 3,645 7.4 -14.5°
Reaches altitude 10° 23:44:59 10° 177° (S) 2,709 6.7 -15.0°
Maximum altitude 23:51:10 72° 94° (E) 1,030 4.4 -16.1°
Drops below altitude 10° 23:57:27 10° 12° (NNE) 2,756 6.8 -17.2°
Sets 00:00:00 0° 10° (N) 3,713 7.5 -17.7°
